Theta_e
316 321 338 342 342 339 341 344 344 344 343 341 341 338 338 331 328 326 321 318 316 312 310 308 305 303 298 296 296 295 295 294 295 294 295 295 294 293 292 293 294 294 293
315 320 337 340 342 341 342 343 344 343 341 338 337 334 327 326 323 323 317 314 312 308 305 303 298 296 297 297 296 295 295 295 295 296 294 294 293 292 293 293 294 293 293
320 322 335 340 343 342 343 342 343 341 338 334 332 326 321 320 315 314 313 310 308 305 299 297 296 297 297 297 295 295 295 295 294 293 293 293 292 292 293 293 292 292 292
320 323 334 340 343 344 343 342 341 338 334 328 323 319 316 314 313 311 310 307 302 297 296 297 297 297 297 296 295 295 295 294 293 292 292 292 292 292 292 292 292 292 291
319 323 333 339 342 343 343 342 337 333 329 322 318 314 312 311 313 311 305 298 297 297 297 297 296 295 294 295 295 295 294 293 292 292 292 291 292 291 292 291 291 291 291
320 323 327 337 341 339 342 337 332 325 320 316 312 312 311 306 302 305 300 296 297 298 298 298 298 296 296 295 295 294 293 292 291 291 291 291 291 291 291 291 291 290 292
320 323 327 336 337 335 336 330 323 318 315 311 308 308 305 303 305 300 296 297 297 295 294 294 294 294 294 293 293 292 291 291 291 291 291 290 290 291 291 291 290 290 290
322 324 328 335 331 329 325 320 317 314 310 306 305 306 302 303 305 296 295 293 293 293 294 294 294 293 293 292 291 290 290 290 291 291 291 290 290 290 290 289 289 289 290
324 325 330 328 326 323 319 315 311 308 305 303 301 299 304 293 294 293 292 293 293 293 293 293 293 292 292 291 289 290 290 290 290 290 290 289 289 288 289 289 289 289 290
319 325 327 326 322 318 314 311 309 307 304 302 296 295 292 293 292 292 293 292 292 292 292 292 292 291 290 289 289 290 289 289 289 289 289 288 288 287 287 288 288 288 289
318 325 324 321 317 313 311 308 306 303 300 297 294 294 292 291 292 293 293 292 292 291 291 291 291 290 288 288 289 289 289 288 288 287 287 287 287 287 287 287 287 287 288
321 317 316 314 312 309 307 304 302 300 297 294 291 290 290 291 292 293 293 293 292 291 291 290 289 289 287 288 288 289 289 288 287 287 287 287 287 286 286 286 286 287 287
309 308 308 307 305 304 302 301 298 296 294 292 291 291 291 291 292 293 293 292 292 290 289 289 288 287 286 288 288 288 288 288 286 286 286 286 286 286 286 286 286 286 287
306 305 304 303 302 302 300 298 296 294 292 292 292 292 292 292 292 293 292 292 290 289 288 287 286 286 286 287 288 288 288 288 286 285 285 285 285 286 286 286 286 286 287
303 303 303 301 299 298 298 297 296 295 293 293 293 292 292 292 293 293 293 292 291 289 288 286 286 285 286 286 287 287 287 287 286 285 285 285 285 285 285 285 285 286 287
299 299 298 297 296 295 295 294 295 294 293 292 293 293 293 294 293 293 292 292 290 289 287 285 285 284 283 285 286 286 286 286 286 285 284 284 284 285 285 285 285 286 286
298 298 297 296 296 296 295 294 292 292 293 293 294 294 294 293 292 291 291 290 289 289 286 284 283 283 283 284 285 285 285 286 285 284 284 284 284 285 285 285 285 285 286
297 297 297 296 295 295 295 294 293 293 293 292 294 293 292 292 291 291 290 290 288 286 284 283 283 283 283 283 284 285 285 285 285 284 283 284 284 284 285 285 284 285 285
295 294 294 294 293 293 293 293 293 292 291 291 291 291 291 291 290 290 290 289 286 284 284 283 283 283 283 283 283 285 285 284 284 283 283 284 284 284 284 284 284 284 285
293 293 293 292 292 292 292 292 292 292 291 290 290 289 290 290 290 289 288 286 285 284 284 283 283 283 283 283 283 284 284 284 284 283 283 283 283 283 284 284 284 285 285
292 292 292 292 292 292 292 292 292 291 290 290 289 291 291 290 289 288 288 286 286 286 285 285 284 283 283 283 283 284 284 283 283 283 282 282 283 283 284 284 284 285 285
292 292 292 292 292 292 292 291 291 290 289 289 290 290 290 289 289 288 288 287 287 287 287 286 284 283 283 283 283 283 283 283 282 282 282 282 282 283 283 284 284 284 285
292 291 292 292 291 291 291 291 290 290 290 290 289 290 290 289 289 288 288 288 288 288 287 286 285 284 283 283 283 283 283 282 282 282 282 282 282 282 283 283 284 284 284
292 292 292 291 291 291 291 290 290 290 290 289 290 290 289 289 289 289 288 288 288 288 287 287 286 284 283 283 283 283 282 282 282 282 281 281 281 282 283 283 283 284 284
292 292 292 292 291 291 291 291 290 290 290 290 290 290 290 290 290 289 289 288 288 288 287 287 286 285 283 282 282 282 282 282 282 281 281 281 281 282 283 283 283 284 284
292 292 292 292 292 291 291 291 291 291 291 291 291 290 290 290 290 289 289 289 289 288 287 287 286 285 283 282 282 282 282 282 281 281 281 281 281 282 283 282 283 283 284
Wind_Speed
26 32 32 32 36 35 34 32 36 33 35 38 41 40 40 36 39 36 30 28 26 23 20 18 17 13 14 12 11 10 9 7 3 2 5 11 14 22 23 21 23 24 21
27 27 32 33 34 34 32 32 36 36 36 38 41 41 40 42 39 41 37 30 29 26 21 20 19 16 15 12 11 13 13 11 4 2 5 12 15 23 23 24 25 26 21
26 25 31 28 34 35 34 34 34 37 37 37 39 39 39 42 35 38 37 32 28 24 22 21 20 16 14 11 11 11 10 9 10 6 7 12 14 22 26 24 26 32 24
29 22 27 29 35 37 35 34 34 38 40 35 35 36 36 38 39 38 35 34 31 25 22 21 18 17 15 12 11 9 9 9 11 11 8 9 13 20 18 18 21 24 27
25 21 24 30 37 38 36 36 39 40 40 42 43 40 39 39 42 38 33 32 32 31 26 23 20 19 15 13 11 11 9 10 11 10 8 6 11 15 19 19 20 22 22
23 23 23 30 34 38 36 37 40 40 46 46 44 47 45 35 33 38 40 32 31 31 28 25 22 20 17 15 14 10 11 12 13 9 8 7 10 13 17 21 21 23 7
25 25 20 31 34 36 36 40 41 42 45 48 47 49 51 46 38 30 31 32 31 30 29 27 26 21 16 14 13 11 13 12 13 12 8 9 11 16 19 18 21 21 16
23 20 20 25 30 37 44 46 45 46 46 42 51 53 46 45 41 35 35 34 35 30 28 27 24 19 14 11 11 14 14 15 14 11 11 12 14 16 16 17 17 19 19
19 16 20 32 38 41 44 45 47 50 47 45 41 47 55 40 48 42 41 39 39 32 28 25 22 19 14 11 13 16 16 16 11 10 11 12 15 18 20 20 21 23 18
16 16 30 43 45 43 46 47 45 53 48 57 46 50 49 51 46 48 45 44 41 34 28 25 21 19 15 15 17 16 19 15 15 16 16 20 23 25 24 22 19 20 21
25 30 38 42 45 46 42 45 45 52 53 44 46 48 44 49 48 46 44 43 41 36 31 26 22 18 19 20 18 18 17 15 19 22 23 24 27 27 26 27 24 19 19
42 41 41 43 41 45 46 39 43 51 52 52 44 36 35 42 43 41 40 40 36 37 32 26 22 20 19 21 20 18 18 21 24 26 26 26 24 29 32 30 26 24 19
48 45 45 44 43 46 47 39 38 49 45 41 40 37 33 37 39 37 37 36 34 35 29 26 22 22 21 22 19 20 23 25 28 28 20 21 27 28 28 28 26 27 23
49 49 50 49 43 42 47 37 36 47 45 38 36 36 35 37 39 39 40 36 34 32 28 25 24 23 22 20 20 23 27 28 28 21 19 27 29 28 25 26 27 29 24
44 46 48 49 47 43 38 34 38 34 41 42 36 38 40 32 33 40 40 36 32 29 28 25 24 24 22 19 21 26 28 27 25 24 31 27 25 25 26 27 25 25 25
42 39 42 51 43 42 44 44 42 44 38 39 40 43 39 44 40 36 33 32 29 25 28 27 24 20 14 22 20 23 24 24 24 30 27 24 24 23 23 27 27 26 25
43 42 44 48 40 40 40 42 41 43 43 45 44 45 45 43 37 36 34 31 26 25 29 25 19 14 22 21 22 19 20 23 26 27 23 22 24 21 24 27 27 26 27
43 43 43 39 38 37 39 40 38 37 36 38 42 43 41 38 35 33 31 30 29 26 24 20 20 21 22 21 19 18 21 25 24 24 24 25 24 19 22 26 26 26 26
38 37 39 38 38 41 40 39 38 37 36 36 41 41 37 35 34 31 27 30 29 24 23 22 22 21 21 20 19 20 21 22 23 24 25 24 24 20 21 23 24 25 25
39 40 40 40 40 40 37 38 37 36 34 32 31 32 37 33 32 30 28 28 28 26 24 23 22 21 20 19 19 20 20 22 25 24 24 23 23 20 19 21 23 25 25
34 36 40 39 38 37 36 35 35 34 31 31 32 35 32 34 31 28 27 26 26 25 25 24 21 19 19 19 20 20 20 22 21 21 21 21 22 22 19 19 21 23 24
33 34 34 36 36 35 34 34 34 34 32 35 36 33 31 32 30 27 25 24 23 23 21 20 19 20 20 19 19 20 21 21 20 19 19 21 21 20 19 18 20 23 24
33 34 33 33 35 38 35 33 33 34 35 35 35 35 32 31 28 26 25 23 21 19 18 18 20 20 18 17 19 20 19 19 18 19 20 19 19 18 18 17 19 21 24
34 35 34 32 32 33 34 34 36 37 35 34 34 32 30 29 27 25 23 21 19 18 16 17 18 18 16 16 17 17 16 17 18 17 17 17 16 16 16 16 18 20 22
33 34 34 34 33 33 35 33 34 34 33 32 32 30 27 26 24 21 19 17 16 15 14 13 15 16 16 14 13 14 16 18 17 16 17 15 15 15 16 15 17 19 21
38 37 35 37 36 35 35 34 33 32 31 30 28 26 24 22 20 18 16 14 13 11 10 11 13 13 11 11 13 14 15 16 17 18 16 15 15 14 14 14 17 18 19
Wind_Direction
269 247 226 214 211 205 205 199 197 188 187 183 185 188 176 171 164 160 156 150 143 137 132 131 124 118 108 99 89 81 81 79 85 336 318 350 351 349 353 2 358 354 349
279 265 235 213 206 201 196 197 188 183 184 178 178 174 165 168 167 158 154 148 142 136 137 134 123 119 109 102 92 84 77 72 89 5 339 351 345 354 355 355 1 358 355
290 274 240 214 200 197 196 188 183 176 169 167 166 160 157 153 149 149 144 139 137 135 139 133 126 121 110 108 96 89 73 60 54 36 2 351 341 355 354 351 353 0 357
285 278 238 210 196 191 188 184 181 167 158 152 143 140 139 138 146 140 135 136 130 135 130 120 116 108 112 117 107 89 75 61 40 29 14 353 347 347 350 337 345 354 349
276 275 243 211 195 183 174 172 161 152 147 138 133 130 134 139 144 136 138 133 131 128 119 110 102 102 105 104 95 83 75 56 39 26 19 352 350 344 350 344 340 341 338
270 263 256 216 189 189 161 149 147 135 132 130 127 133 136 134 134 129 135 135 139 129 120 114 111 107 106 101 92 81 63 46 34 24 15 348 346 344 342 352 345 351 344
267 266 252 213 189 180 146 137 129 128 128 127 129 133 130 132 131 126 127 142 133 126 122 119 111 108 109 107 97 81 66 50 42 42 22 8 355 353 353 348 349 343 330
254 256 243 210 151 142 132 129 127 127 125 125 128 131 127 126 123 136 143 137 124 119 117 114 114 116 109 103 94 73 61 54 41 38 29 25 18 10 2 353 346 329 340
240 240 227 146 137 134 130 129 127 123 121 119 122 127 127 133 134 145 139 126 116 112 110 109 111 109 102 96 85 77 70 60 54 49 42 32 29 30 20 7 359 358 353
240 228 166 141 137 137 135 131 133 125 124 126 123 129 133 134 142 141 132 122 114 112 107 103 102 96 97 87 77 72 67 50 43 47 42 37 33 30 30 22 5 3 356
244 161 139 134 131 128 126 128 129 121 120 118 117 122 128 140 140 134 130 123 121 114 110 107 99 97 86 79 74 68 65 57 46 40 32 26 26 21 19 20 16 3 351
124 124 122 122 122 121 119 120 128 126 117 118 117 120 125 132 134 134 130 122 120 116 111 110 103 94 88 84 78 75 66 56 46 40 31 23 15 15 15 15 11 7 10
109 107 106 107 111 116 115 120 124 112 114 117 123 122 125 129 129 127 124 124 117 111 111 103 104 95 90 84 75 66 58 52 44 37 25 21 22 15 10 5 4 360 10
108 108 106 102 104 110 104 117 113 115 118 125 125 127 124 123 128 130 130 121 118 112 109 106 100 94 85 86 73 65 58 52 45 35 28 29 24 15 8 6 356 353 0
102 105 106 105 97 93 100 107 106 108 123 130 130 129 126 125 129 133 135 130 122 118 112 107 98 88 81 82 69 59 52 48 40 34 33 26 21 12 5 2 3 2 360
98 99 104 98 102 103 99 89 98 111 117 120 123 125 126 128 135 132 128 129 126 126 107 95 89 85 84 68 62 56 49 43 38 36 30 24 21 11 3 4 5 4 357
91 94 96 99 104 106 107 110 109 109 120 121 123 125 130 132 131 130 128 130 125 112 100 93 96 90 73 68 63 59 53 44 42 36 31 24 20 8 8 8 6 2 358
87 93 97 105 109 111 112 112 114 112 108 107 121 124 126 128 130 131 130 120 107 98 101 103 90 80 73 67 63 57 51 43 40 33 30 26 19 12 10 10 5 0 357
92 95 100 103 104 105 107 109 110 111 111 112 117 121 125 129 126 124 122 113 113 110 100 92 85 79 73 65 60 57 51 44 38 32 28 24 19 13 14 10 4 360 360
93 103 105 104 104 104 108 110 112 112 112 114 117 122 130 126 120 117 118 116 110 103 95 89 80 74 68 63 57 54 48 40 35 30 25 20 18 19 12 8 7 3 3
101 102 105 105 108 110 112 111 112 113 116 119 125 133 131 123 123 124 121 116 109 101 89 81 77 73 67 59 53 50 45 40 32 27 21 21 19 16 14 10 7 7 5
102 101 102 104 107 109 110 111 114 117 121 123 128 131 129 127 124 119 118 116 106 93 86 82 79 70 62 54 50 47 40 34 26 21 19 20 19 17 15 12 10 9 11
98 100 102 105 109 111 110 114 117 120 124 128 133 135 132 127 123 120 115 108 108 104 92 79 70 65 59 51 45 40 34 29 22 18 15 17 18 16 16 12 11 10 12
106 107 109 110 112 113 116 119 126 131 132 134 136 133 130 123 120 117 115 121 118 106 90 75 66 60 55 49 42 36 29 25 22 19 16 15 18 20 18 15 13 11 13
111 114 116 118 119 121 125 125 129 132 132 132 131 129 128 125 121 122 126 122 115 104 93 78 63 53 49 43 38 32 26 22 19 20 20 19 21 26 26 18 13 13 15
122 122 123 125 126 129 130 132 132 133 133 130 129 131 131 133 133 132 130 126 115 111 101 77 57 46 40 40 35 28 23 19 19 18 19 21 22 24 24 18 15 17 15